EW1039 Weather Reports


time (UTC)temp
F
wind
direction
speed
knots
gust
knots
rain 1hr
in
rain 24hr
in
rain mn
in
humidity
%
barometer
mb
20260507090031 51 284 1.7 7.8 0.00 0.00 0.00 34 1017.4
20260507084528 50 317 0.0 8.7 0.00 0.00 0.00 37 1017.5
20260507083024 49 251 4.3 10.4 0.00 0.00 0.00 37 1017.5
20260507081520 49 261 1.7 8.7 0.00 0.00 0.00 39 1017.5
20260507080016 48 224 5.2 10.4 0.00 0.00 0.00 40 1017.3
20260507074511 47 265 6.1 11.3 0.00 0.00 0.00 42 1017.3
20260507073006 46 261 3.5 8.7 0.00 0.00 0.00 44 1017.3
20260507071508 45 300 3.5 9.6 0.00 0.00 0.00 45 1017.3
20260507070005 44 208 2.6 8.7 0.00 0.00 0.00 47 1017.4
20260507064558 43 230 0.9 7.8 0.00 0.00 0.00 50 1017.4
20260507063057 42 236 3.5 8.7 0.00 0.00 0.00 51 1017.4
20260507061558 40 304 0.9 5.2 0.00 0.00 0.00 56 1017.4
20260507060056 39 354 0.0 2.6 0.00 0.00 0.00 63 1017.4
20260507054551 38 294 0.0 4.3 0.00 0.00 0.00 62 1017.4
20260507053116 37 280 1.7 7.0 0.00 0.00 0.00 65 1017.3
20260507051557 35 222 0.9 5.2 0.00 0.00 0.00 67 1017.3
20260507050047 34 288 0.0 0.0 0.00 0.00 0.00 70 1017.2
20260507044546 33 276 0.0 0.0 0.00 0.00 0.00 72 1017.0
20260507043044 32 282 0.0 0.0 0.00 0.00 0.00 74 1017.0
20260507041546 31 280 0.0 0.0 0.00 0.00 0.00 74 1016.9
20260507040040 31 240 0.0 0.0 0.00 0.00 0.00 72 1016.8
20260507034539 32 261 1.7 3.5 0.00 0.00 0.00 73 1016.7
20260507033042 32 281 0.0 0.0 0.00 0.00 0.00 74 1016.6
20260507031531 32 283 0.0 2.6 0.00 0.00 0.00 71 1016.4
20260507030031 32 303 0.0 2.6 0.00 0.00 0.00 70 1016.5
20260507024531 32 300 0.0 2.6 0.00 0.00 0.00 71 1016.3
20260507023032 33 261 0.0 3.5 0.00 0.00 0.00 71 1016.2
20260507021522 33 313 0.0 2.6 0.00 0.00 0.00 70 1016.0
20260507020022 34 287 0.0 2.6 0.00 0.00 0.00 67 1015.9
20260507014517 34 278 0.0 2.6 0.00 0.00 0.00 65 1015.9
20260507013013 36 320 0.0 0.0 0.00 0.00 0.00 65 1015.8
20260507011509 37 261 0.9 4.3 0.00 0.00 0.00 59 1015.6
20260507010013 36 251 0.0 4.3 0.00 0.00 0.00 61 1015.4
20260507004505 37 334 0.0 0.0 0.00 0.00 0.00 61 1015.4
20260507003002 39 322 0.0 5.2 0.00 0.00 0.00 53 1015.3
20260507001559 40 242 2.6 7.8 0.00 0.00 0.00 51 1015.1
20260507000057 40 251 3.5 7.8 0.00 0.00 0.00 51 1015.1
20260506234555 40 247 2.6 7.8 0.00 0.00 0.00 52 1015.1
20260506233057 40 230 3.5 8.7 0.00 0.00 0.00 51 1015.0
20260506231553 40 241 3.5 7.0 0.00 0.00 0.00 51 1014.8
20260506230048 40 219 3.5 7.0 0.00 0.00 0.00 52 1014.7
20260506224646 41 226 4.3 7.8 0.00 0.00 0.00 49 1014.5
20260506223040 42 215 4.3 8.7 0.00 0.00 0.00 47 1014.6
20260506221538 42 216 6.1 9.6 0.00 0.00 0.00 48 1014.4
20260506220040 42 196 4.3 10.4 0.00 0.00 0.00 47 1014.2
20260506214542 42 188 3.5 7.8 0.00 0.00 0.00 47 1014.2
20260506213033 42 197 3.5 7.8 0.00 0.00 0.00 47 1014.1
20260506211533 43 194 3.5 7.8 0.00 0.00 0.00 46 1014.0
20260506210032 43 215 2.6 7.8 0.00 0.00 0.00 45 1013.8
20260506204531 43 217 0.9 7.0 0.00 0.00 0.00 43 1013.6
20260506203030 44 207 3.5 8.7 0.00 0.00 0.00 41 1013.5
20260506201529 44 216 2.6 7.0 0.00 0.00 0.00 39 1013.5
20260506200028 45 228 0.9 5.2 0.00 0.00 0.00 37 1013.3
20260506194528 46 244 0.9 4.3 0.00 0.00 0.00 36 1013.1
20260506193026 47 241 1.7 7.0 0.00 0.00 0.00 35 1012.9
20260506191526 48 242 1.7 9.6 0.00 0.00 0.00 32 1012.8
20260506190027 49 297 3.5 11.3 0.00 0.00 0.00 32 1012.6
20260506184525 50 296 3.5 9.6 0.00 0.00 0.00 31 1012.5
20260506183132 50 317 0.9 12.2 0.00 0.00 0.00 29 1012.3
20260506181524 51 285 0.0 8.7 0.00 0.00 0.00 28 1011.9
20260506180023 52 293 0.0 8.7 0.00 0.00 0.00 28 1011.8
20260506174522 53 251 0.0 8.7 0.00 0.00 0.00 27 1011.5
20260506173022 54 316 0.9 7.8 0.00 0.00 0.00 26 1011.5
20260506171523 55 292 0.0 10.4 0.00 0.00 0.00 24 1011.4
20260506170023 55 251 1.7 7.8 0.00 0.00 0.00 23 1011.3
20260506164519 56 256 1.7 8.7 0.00 0.00 0.00 24 1011.3
20260506163018 57 265 0.0 6.1 0.00 0.00 0.00 25 1011.3
20260506161518 57 251 2.6 10.4 0.00 0.00 0.00 24 1011.2
20260506160019 57 321 1.7 10.4 0.00 0.00 0.00 23 1011.2
20260506154517 58 299 0.9 7.8 0.00 0.00 0.00 25 1011.1
20260506153016 58 333 0.0 8.7 0.00 0.00 0.00 25 1011.0
20260506151516 57 292 0.0 0.9 0.00 0.00 0.00 29 1011.2
20260506150014 58 19 0.0 1.7 0.00 0.00 0.00 31 1011.4
20260506144515 57 101 0.0 1.7 0.00 0.00 0.00 29 1011.4
20260506143009 58 307 0.0 5.2 0.00 0.00 0.00 27 1011.4
20260506141507 58 331 0.0 3.5 0.00 0.00 0.00 29 1011.6
20260506140005 57 256 0.0 0.9 0.00 0.00 0.00 29 1011.7
20260506134504 56 251 0.9 7.8 0.00 0.00 0.00 29 1011.8
20260506133003 56 301 0.9 7.8 0.00 0.00 0.00 27 1011.8
20260506131506 56 78 0.0 7.8 0.00 0.00 0.00 30 1011.9
20260506130002 57 282 0.0 1.7 0.00 0.00 0.00 29 1012.0
20260506124559 56 24 0.0 1.7 0.00 0.00 0.00 27 1012.1
20260506123055 54 271 0.0 1.7 0.00 0.00 0.00 29 1012.3
20260506121553 54 213 0.0 7.8 0.00 0.00 0.00 31 1012.4
20260506120051 53 153 0.0 0.0 0.00 0.00 0.00 33 1012.5
20260506114549 54 45 0.0 0.0 0.00 0.00 0.00 31 1012.6
20260506113047 53 251 0.0 0.9 0.00 0.00 0.00 27 1012.7
20260506111545 52 165 1.7 6.1 0.00 0.00 0.00 31 1012.8
20260506110045 52 325 0.0 0.9 0.00 0.00 0.00 35 1012.8
20260506104547 51 271 0.0 7.0 0.00 0.00 0.00 33 1012.9
20260506103040 51 344 0.0 7.8 0.00 0.00 0.00 35 1013.0
20260506101536 50 225 3.5 8.7 0.00 0.00 0.00 36 1013.2
20260506100031 50 227 0.9 9.6 0.00 0.00 0.00 36 1013.3
20260506094529 49 227 5.2 10.4 0.00 0.00 0.00 36 1013.2
20260506093033 48 217 5.2 10.4 0.00 0.00 0.00 37 1013.4
20260506091526 48 196 7.0 9.6 0.00 0.00 0.00 37 1013.5